When you browse on this site, cookies collect data to enhance your experience and personalize the content and advertising you see.
Visit our Privacy Policy to learn more. By continuing to use the site, you agree to this use of cookies and data.
  • In Austria
  • List of Countries
  • For 7 days
  • Water Temperature
  • Weather Map
  • News
  • Weather Widgets
  • user-avatar
    Login

    Hourly Weather San Antonio del Tequendama

    Today, 21 November, Thursday

    Time Temperature Precipitation Wind Pressure Humidity
    00:00 +17°C° 0.2 mm 0 mps 642 mmHg 91%
    01:00 +17°C° 0.2 mm 0 mps 642 mmHg 91%
    02:00 +17°C° 0 mm 0 mps 642 mmHg 91%
    03:00 +18°C° 0 mm 1 mps 642 mmHg 91%
    04:00 +18°C° 0 mm 1 mps 642 mmHg 91%
    05:00 +17°C° 0 mm 0 mps 642 mmHg 90%
    06:00 +18°C° 0 mm 0 mps 643 mmHg 88%
    07:00 +18°C° 0 mm 0 mps 643 mmHg 87%
    08:00 +22°C° 0.2 mm 1 mps 644 mmHg 84%
    09:00 +23°C° 0.2 mm 1 mps 644 mmHg 81%
    10:00 +24°C° 0.2 mm 2 mps 644 mmHg 79%
    11:00 +24°C° 0.6 mm 2 mps 644 mmHg 80%
    12:00 +25°C° 0.6 mm 2 mps 643 mmHg 81%
    13:00 +25°C° 0.6 mm 2 mps 642 mmHg 82%
    14:00 +25°C° 0.7 mm 2 mps 642 mmHg 82%
    15:00 +24°C° 0.7 mm 1 mps 641 mmHg 82%
    16:00 +24°C° 0.7 mm 1 mps 641 mmHg 81%
    17:00 +23°C° 0.5 mm 1 mps 641 mmHg 84%
    18:00 +21°C° 0.5 mm 1 mps 641 mmHg 87%
    19:00 +20°C° 0.5 mm 1 mps 641 mmHg 90%
    20:00 +20°C° 0.3 mm 1 mps 641 mmHg 89%
    21:00 +19°C° 0.3 mm 1 mps 642 mmHg 88%
    22:00 +19°C° 0.3 mm 1 mps 642 mmHg 87%
    23:00 +19°C° 0.1 mm 1 mps 642 mmHg 87%

    Tomorrow, 22 November, Friday

    Time Temperature Precipitation Wind Pressure Humidity
    00:00 +19°C° 0.1 mm 1 mps 642 mmHg 87%
    01:00 +18°C° 0.1 mm 1 mps 641 mmHg 86%
    02:00 +18°C° 0 mm 1 mps 641 mmHg 87%
    03:00 +18°C° 0 mm 1 mps 641 mmHg 87%
    04:00 +18°C° 0 mm 1 mps 641 mmHg 87%
    05:00 +19°C° 0 mm 1 mps 641 mmHg 85%
    06:00 +20°C° 0 mm 1 mps 642 mmHg 82%
    07:00 +18°C° 0 mm 0 mps 643 mmHg 80%
    08:00 +22°C° 0 mm 1 mps 643 mmHg 77%
    09:00 +24°C° 0 mm 1 mps 644 mmHg 73%
    10:00 +25°C° 0 mm 2 mps 644 mmHg 70%
    11:00 +25°C° 0.6 mm 2 mps 643 mmHg 74%
    12:00 +25°C° 0.6 mm 2 mps 643 mmHg 77%
    13:00 +25°C° 0.6 mm 2 mps 642 mmHg 81%
    14:00 +25°C° 1.2 mm 2 mps 641 mmHg 83%
    15:00 +24°C° 1.2 mm 2 mps 641 mmHg 85%
    16:00 +24°C° 1.2 mm 1 mps 640 mmHg 87%
    17:00 +23°C° 0.6 mm 1 mps 641 mmHg 88%
    18:00 +21°C° 0.6 mm 1 mps 641 mmHg 89%
    19:00 +20°C° 0.6 mm 1 mps 641 mmHg 90%
    20:00 +20°C° 0.3 mm 1 mps 641 mmHg 89%
    21:00 +20°C° 0.3 mm 1 mps 642 mmHg 89%
    22:00 +20°C° 0.3 mm 1 mps 642 mmHg 88%
    23:00 +19°C° 0.2 mm 1 mps 642 mmHg 89%

    Day after tomorrow, 23 November, Saturday

    Time Temperature Precipitation Wind Pressure Humidity
    00:00 +19°C° 0.2 mm 1 mps 642 mmHg 89%
    01:00 +19°C° 0.2 mm 1 mps 641 mmHg 89%
    02:00 +19°C° 0.1 mm 1 mps 641 mmHg 90%
    03:00 +19°C° 0.1 mm 1 mps 641 mmHg 91%
    04:00 +19°C° 0.1 mm 1 mps 641 mmHg 91%
    05:00 +19°C° 0 mm 1 mps 642 mmHg 89%
    06:00 +20°C° 0 mm 1 mps 642 mmHg 86%
    07:00 +18°C° 0 mm 0 mps 643 mmHg 83%
    08:00 +22°C° 0 mm 1 mps 643 mmHg 79%
    09:00 +23°C° 0 mm 1 mps 644 mmHg 75%
    10:00 +25°C° 0 mm 2 mps 644 mmHg 70%
    11:00 +25°C° 0.5 mm 2 mps 643 mmHg 76%
    12:00 +24°C° 0.5 mm 2 mps 643 mmHg 81%
    13:00 +24°C° 0.5 mm 2 mps 642 mmHg 86%
    14:00 +24°C° 1 mm 1 mps 641 mmHg 87%
    15:00 +24°C° 1 mm 1 mps 641 mmHg 88%
    16:00 +23°C° 1 mm 1 mps 640 mmHg 89%
    17:00 +22°C° 0.6 mm 1 mps 641 mmHg 90%
    18:00 +22°C° 0.6 mm 1 mps 641 mmHg 91%
    19:00 +19°C° 0.6 mm 0 mps 641 mmHg 92%
    20:00 +20°C° 0.3 mm 1 mps 642 mmHg 92%
    21:00 +20°C° 0.3 mm 1 mps 642 mmHg 91%
    22:00 +20°C° 0.3 mm 1 mps 643 mmHg 90%
    23:00 +20°C° 0.1 mm 1 mps 642 mmHg 90%

    24 November, Sunday

    Time Temperature Precipitation Wind Pressure Humidity
    00:00 +20°C° 0.1 mm 1 mps 642 mmHg 90%
    01:00 +20°C° 0.1 mm 1 mps 642 mmHg 90%
    02:00 +20°C° 0 mm 1 mps 642 mmHg 90%
    03:00 +19°C° 0 mm 1 mps 641 mmHg 90%
    04:00 +19°C° 0 mm 1 mps 641 mmHg 90%
    05:00 +18°C° 0 mm 0 mps 642 mmHg 88%
    06:00 +18°C° 0 mm 0 mps 642 mmHg 86%
    07:00 +18°C° 0 mm 0 mps 643 mmHg 84%
    08:00 +22°C° 0 mm 1 mps 643 mmHg 80%
    09:00 +24°C° 0 mm 1 mps 644 mmHg 75%
    10:00 +25°C° 0 mm 1 mps 644 mmHg 71%
    11:00 +25°C° 0.5 mm 2 mps 643 mmHg 75%
    12:00 +25°C° 0.5 mm 2 mps 642 mmHg 79%
    13:00 +25°C° 0.5 mm 2 mps 641 mmHg 83%
    14:00 +24°C° 0.7 mm 2 mps 641 mmHg 84%
    15:00 +24°C° 0.7 mm 1 mps 640 mmHg 86%
    16:00 +24°C° 0.7 mm 1 mps 640 mmHg 88%
    17:00 +23°C° 0.7 mm 1 mps 640 mmHg 89%
    18:00 +22°C° 0.7 mm 1 mps 641 mmHg 91%
    19:00 +21°C° 0.7 mm 1 mps 641 mmHg 93%
    20:00 +21°C° 0.8 mm 1 mps 641 mmHg 92%
    21:00 +21°C° 0.8 mm 1 mps 642 mmHg 92%
    22:00 +21°C° 0.8 mm 1 mps 642 mmHg 92%
    23:00 +20°C° 0.2 mm 1 mps 642 mmHg 91%

    25 November, Monday

    Time Temperature Precipitation Wind Pressure Humidity
    00:00 +18°C° 0.2 mm 0 mps 641 mmHg 90%
    01:00 +18°C° 0.2 mm 0 mps 641 mmHg 89%
    02:00 +19°C° 0 mm 1 mps 641 mmHg 89%
    03:00 +19°C° 0 mm 1 mps 640 mmHg 89%
    04:00 +19°C° 0 mm 1 mps 640 mmHg 89%
    05:00 +20°C° 0 mm 1 mps 641 mmHg 87%
    06:00 +18°C° 0 mm 0 mps 641 mmHg 85%
    07:00 +19°C° 0 mm 0 mps 642 mmHg 82%
    08:00 +22°C° 0.1 mm 1 mps 642 mmHg 78%
    09:00 +24°C° 0.1 mm 1 mps 643 mmHg 74%
    10:00 +26°C° 0.1 mm 1 mps 643 mmHg 70%
    11:00 +26°C° 0.4 mm 1 mps 642 mmHg 73%
    12:00 +25°C° 0.4 mm 1 mps 641 mmHg 76%
    13:00 +25°C° 0.4 mm 2 mps 640 mmHg 79%
    14:00 +25°C° 0.5 mm 1 mps 640 mmHg 81%
    15:00 +25°C° 0.5 mm 1 mps 639 mmHg 83%
    16:00 +24°C° 0.5 mm 1 mps 639 mmHg 86%
    17:00 +23°C° 0.9 mm 1 mps 639 mmHg 88%
    18:00 +22°C° 0.9 mm 1 mps 639 mmHg 91%
    19:00 +21°C° 0.9 mm 1 mps 640 mmHg 93%
    20:00 +21°C° 1 mm 1 mps 640 mmHg 92%
    21:00 +21°C° 1 mm 1 mps 641 mmHg 91%
    22:00 +20°C° 1 mm 1 mps 641 mmHg 90%
    23:00 +20°C° 0.5 mm 1 mps 641 mmHg 89%

    26 November, Tuesday

    Time Temperature Precipitation Wind Pressure Humidity
    00:00 +20°C° 0.5 mm 1 mps 640 mmHg 89%
    01:00 +19°C° 0.5 mm 1 mps 640 mmHg 88%
    02:00 +19°C° 0.2 mm 1 mps 640 mmHg 88%
    03:00 +19°C° 0.2 mm 1 mps 640 mmHg 88%
    04:00 +19°C° 0.2 mm 1 mps 640 mmHg 87%
    05:00 +19°C° 0 mm 1 mps 640 mmHg 86%
    06:00 +20°C° 0 mm 1 mps 641 mmHg 85%
    07:00 +21°C° 0 mm 1 mps 642 mmHg 84%
    08:00 +22°C° 0.2 mm 1 mps 642 mmHg 82%
    09:00 +24°C° 0.2 mm 1 mps 643 mmHg 79%
    10:00 +25°C° 0.2 mm 1 mps 643 mmHg 76%
    11:00 +25°C° 1 mm 1 mps 642 mmHg 78%
    12:00 +25°C° 1 mm 1 mps 642 mmHg 80%
    13:00 +25°C° 1 mm 1 mps 641 mmHg 82%
    14:00 +25°C° 0.8 mm 1 mps 640 mmHg 82%
    15:00 +25°C° 0.8 mm 1 mps 640 mmHg 82%
    16:00 +25°C° 0.8 mm 1 mps 639 mmHg 82%
    17:00 +24°C° 0.6 mm 1 mps 640 mmHg 85%
    18:00 +23°C° 0.6 mm 1 mps 640 mmHg 88%
    19:00 +21°C° 0.6 mm 1 mps 640 mmHg 91%
    20:00 +21°C° 0.6 mm 1 mps 641 mmHg 89%
    21:00 +20°C° 0.6 mm 2 mps 641 mmHg 88%
    22:00 +19°C° 0.6 mm 2 mps 641 mmHg 86%
    23:00 +19°C° 0.3 mm 2 mps 641 mmHg 86%
    Show more